Regional Weather Roundup
Issued by NWS Mt. Holly, NJ

Home | Current Version | Previous Version | Text Only | Print | Product List | Glossary On
Versions: 1 2 3 4 5 6 7 8 9 10 11 12 13 14 15 16 17 18 19 20 21 22 23 24 25 26 27
000
ASUS41 KPHI 230610
RWRPHI

REGIONAL WEATHER ROUNDUP
NATIONAL WEATHER SERVICE MOUNT HOLLY NJ
200 AM EDT WED APR 23 2014

NOTE:  "FAIR" INDICATES FEW OR NO CLOUDS BELOW 12,000 FEET WITH NO
SIGNIFICANT WEATHER AND/OR OBSTRUCTIONS TO VISIBILITY.

 * = STATION DOES NOT REPORT PRECIPITATION (E.G. RAIN, SNOW, ETC.)
        OR FOG.

NJZ015>026-230700-
SOUTHERN NEW JERSEY

CITY           SKY/WX    TMP DP  RH WIND       PRES   REMARKS
POMONA         CLOUDY    58  44  60 W13       29.57S
6HR MIN TEMP:  57; 6HR MAX TEMP:  65;

RIO GRANDE*      N/A    N/A N/A N/A MISG        N/A
MILLVILLE      CLOUDY    60  41  49 NW15G25   29.60R
WRIGHTSTOWN    CLOUDY    58  44  59 W17G25    29.54F
MOUNT HOLLY    CLOUDY    58  37  45 W14G22    29.58R
TRENTON        MOCLDY    56  45  66 W10G21    29.55F
6HR MIN TEMP:  56; 6HR MAX TEMP:  65; 6HR PCP: TRACE;


$$
NJZ001>014-230700-
NORTHERN NEW JERSEY

CITY           SKY/WX    TMP DP  RH WIND       PRES   REMARKS
SUSSEX         FAIR      55  46  71 NW8       29.53F
ANDOVER*         N/A     54  48  80 N5        29.54S
MORRISTOWN     FAIR      57  48  72 W6        29.52R
NEWARK         FAIR      58  47  66 SW10      29.50F
TETERBORO      FAIR      59  46  62 W7        29.49F
CALDWELL       FAIR      54  47  77 CALM      29.51F
SOMERVILLE     FAIR      56  44  64 VRB6      29.52S
ALLAIRE*       FAIR      57  45  62 W13G23    29.54S
TOMS RIVER*    MOCLDY    55  46  71 W5        29.55F

$$
PAZ043-044-047-054-055-060>062-066>071-230700-
EASTERN PENNSYLVANIA

CITY           SKY/WX    TMP DP  RH WIND       PRES   REMARKS
PHILADELPHIA   CLOUDY    57  35  43 W20       29.61R
6HR MIN TEMP:  56; 6HR MAX TEMP:  69; 6HR PCP: TRACE;

NORTH PHILA    CLOUDY    57  39  51 W16       29.59S
BLUE BELL      FAIR      54  37  54 W7        29.59S
DOYLESTOWN     MOCLDY    52  40  63 NW16G22   29.57S
QUAKERTOWN*    FAIR      50  39  66 W10G18    29.60R
POTTSTOWN      FAIR      49  36  61 W13G25    29.63R
LANCASTER      FAIR      46  35  65 W12       29.66R
COATESVILLE    FAIR      46  36  66 NW13      29.64S
READING        FAIR      49  33  54 W10G17    29.63R
6HR MIN TEMP:  49; 6HR MAX TEMP:  58; 6HR PCP: TRACE;

ALLENTOWN      MOCLDY    50  37  61 W16G23    29.59R
6HR MIN TEMP:  48; 6HR MAX TEMP:  59; 6HR PCP: TRACE;

MOUNT POCONO   CLOUDY    45  38  76 NW15G21   29.55S
6HR MIN TEMP:  45; 6HR MAX TEMP:  56;

HAZLETON       CLOUDY    43  32  65 W14G25    29.62F
WILKES BARRE   CLOUDY    46  37  71 NW18G30   29.60S

$$
DEZALL-MDZ008-012-015-019-020-230700-
DELAWARE AND EASTERN MARYLAND

CITY           SKY/WX    TMP DP  RH WIND       PRES   REMARKS
WILMINGTON     MOCLDY    56  36  47 W21G30    29.64R
6HR MIN TEMP:  56; 6HR MAX TEMP:  62; 6HR PCP: TRACE;

DOVER          MOCLDY    59  45  60 NW13G24   29.59R
GEORGETOWN     CLOUDY    58  50  75 W5        29.63R
6HR MIN TEMP:  55; 6HR MAX TEMP:  67; 6HR PCP: TRACE;

EASTON         CLOUDY    60  51  72 N10       29.69R
PATUXENT       CLOUDY    57  52  83 NW9       29.65R
OCEAN CITY     CLOUDY    56  52  86 CALM      29.61F
WALLOPS ISLAND MOCLDY    62  54  74 N6        29.61F
CAMBRIDGE      FAIR      59  52  77 NW8       29.65R
SALISBURY      MOCLDY    59  55  87 N5        29.62F

$$
PAZ001-021-NYZ056-072-MDZ011-DCZ001-230700-
OTHER NEARBY LOCATIONS

CITY           SKY/WX    TMP DP  RH WIND       PRES   REMARKS
HARRISBURG     FAIR      50  34  54 NW17G26   29.68R
STATE COLLEGE  DRIZZLE   44  32  62 NW9G16    29.71S
WILLIAMSPORT   CLOUDY    47  31  53 NW9       29.65F
BINGHAMTON     CLOUDY    41  32  70 NW14G21   29.59F
NEW YORK CITY  FAIR      59  46  62 CALM      29.52F
BALTIMORE      MOCLDY    53  37  54 NW13G24   29.67R
WASHINGTON DC  FAIR      57  40  52 NW16G25   29.69R

$$



USA.gov is the U.S. government's official web portal to all federal, state and local government web resources and services.